[[{"header":{"parameterUnit":"m.s-1","parameterCategory":1,"la1":30.2991,"la2":30.254,"lo1":-89.0895,"lo2":-89.0444,"dy":0.0017,"dx":0.0017,"nx":28,"ny":28,"refTime":"2025-04-24T03:00:00:Z","depth":0,"parameterNumber":2,"parameterNumberName":"U-component_of_WINDS"},"data":[0,0,0,0,0,0,0,0,0,0,0,0,0,0,0,0,0,0,0,0,0,0,0,0,0,0,0,0,0,0,0,0,0,0,0,0,0,0,0,0,0,0,0,0,0,0,0,0,0,0,0,0,0,0,0,0,0,0,-3.0205,-3.0207,0,-3.0397,-3.0399,-3.0401,-3.0448,-3.0446,-3.0445,-3.0444,-3.0641,-3.0647,-3.0653,0,0,0,0,0,0,0,0,0,0,0,0,0,-2.9884,-2.9889,-3.0205,-3.0207,-3.021,-3.0396,-3.0399,-3.0401,-3.0448,-3.0446,-3.0445,-3.0443,-3.0638,-3.0646,-3.0654,0,0,0,0,0,0,0,0,0,0,0,0,0,-3.0044,-2.9891,-3.0205,-3.0255,-3.0262,-3.0396,-3.0399,-3.0402,-3.0448,-3.0446,-3.0444,-3.0443,-3.0636,-3.0645,-3.0655,-3.0752,0,0,-3.0684,-3.0688,0,0,0,0,0,0,0,0,-3.0035,-3.0056,-3.0246,-3.0252,-3.026,-3.0396,-3.0358,-3.0519,-3.0449,-3.0377,-3.0444,-3.0442,-3.0561,-3.0576,-3.0617,-3.0761,-3.0769,-3.0685,-3.0691,-3.0695,-3.0698,0,0,0,0,0,0,0,-3.0024,-3.0048,-3.0281,-3.0248,-3.0257,-3.027,-3.0291,-3.0389,-3.0477,-3.0383,-3.0387,-3.0409,-3.0564,-3.0607,-3.0621,-3.0772,-3.0685,-3.0693,-3.0699,-3.0703,-3.101,-3.1013,0,0,0,0,0,0,-3.0003,-3.0038,-3.0275,-3.0287,-3.014,-3.0277,-3.03,-3.0354,-3.0476,-3.0493,-3.0411,-3.0411,-3.0592,-3.061,-3.0629,-3.0752,-3.0695,-3.0704,-3.0709,-3.1008,-3.1011,-3.1013,0,0,0,0,0,0,-2.9996,-3.0024,-3.0267,-3.0164,-3.0196,-3.0285,-3.0345,-3.0359,-3.0402,-3.0497,-3.0513,-3.0438,-3.0591,-3.0615,-3.0722,-3.0759,-3.0708,-3.0717,-3.1005,-3.1009,-3.1012,-3.0998,0,0,0,0,0,0,-2.9987,-3.0021,-3.0058,-3.0164,-3.0201,-3.0355,-3.0347,-3.0364,-3.0418,-3.042,-3.0527,-3.0543,-3.0591,-3.0707,-3.0731,-3.0772,-3.0724,-3.1002,-3.1007,-3.1011,-3.0995,-3.1001,-3.1005,0,0,0,0,0,-2.9975,-3.0045,-3.0059,-3.0087,-3.0248,-3.0357,-3.0379,-3.0433,-3.0421,-3.0459,-3.0521,-3.0539,-3.0752,-3.0718,-3.0745,-3.0789,-3.1,-3.1005,-3.1011,-3.0993,-3.1,-3.1005,0,0,0,0,0,0,-2.994,-3.006,-3.0077,-3.0183,-3.026,-3.0365,-3.0414,-3.0437,-3.0519,-3.0517,-3.0582,-3.0606,-3.0708,-3.076,-3.0719,-3.0892,-3.0876,-3.0887,-3.0853,-3.086,-3.0865,-3.085,-3.0732,0,0,0,0,0,-2.9945,-3.0023,-3.0124,-3.0208,-3.0246,-3.0324,-3.0373,-3.0409,-3.0491,-3.0524,-3.0593,-3.0673,-3.0758,-3.0812,-3.0896,-3.1005,-3.1029,-3.1049,-3.1054,-3.1057,-3.1065,-3.1129,-3.1139,-3.1031,-3.1031,-3.1031,0,0,-2.9955,-3.0031,-3.0075,-3.0203,-3.0267,-3.0347,-3.0351,-3.0435,-3.0496,-3.0537,-3.0641,-3.0696,-3.0789,-3.0898,-3.0949,-3.0944,-3.1102,-3.1064,-3.1066,-3.1073,-3.1136,-3.1146,-3.1155,-3.1035,-3.1034,-3.1034,0,0,-3.0015,-3.0079,-3.0157,-3.0222,-3.0319,-3.0371,-3.039,-3.0493,-3.0531,-3.0638,-3.0671,-3.0746,-3.089,-3.0956,-3.1008,-3.1099,-3.1119,-3.1125,-3.1149,-3.121,-3.1219,-3.1227,-3.126,-3.127,-3.1133,-3.1133,-3.1133,0,-3.0015,-3.0136,-3.0195,-3.0279,-3.0335,-3.0378,-3.0459,-3.0519,-3.0638,-3.0676,-3.0669,-3.0854,-3.092,-3.1046,-3.1068,-3.1109,-3.1134,-3.1111,-3.1213,-3.1221,-3.123,-3.1262,-3.1274,-3.1133,-3.1133,-3.1133,-3.1133,0,-3.0133,-3.0217,-3.0269,-3.0384,-3.0447,-3.0528,-3.0601,-3.0658,-3.069,-3.0743,-3.0853,-3.0935,-3.1036,-3.107,-3.1101,-3.1201,-3.1195,-3.12,-3.1185,-3.1239,-3.127,-3.1283,-3.1133,-3.1133,-3.1133,-3.1133,0,0,-3.0171,-3.0321,-3.0338,-3.0392,-3.0505,-3.0572,-3.0658,-3.0758,-3.0806,-3.0888,-3.0962,-3.1086,-3.1093,-3.1152,-3.1192,-3.1246,-3.1315,-3.1245,-3.1249,-3.1255,-3.1432,-3.1426,-3.1439,-3.133,-3.1333,-3.1335,-3.1424,0,-3.0244,-3.0397,-3.0454,-3.058,-3.066,-3.0705,-3.078,-3.0858,-3.0912,-3.0989,-3.1049,-3.1135,-3.1137,-3.1173,-3.1229,-3.1294,-3.1351,-3.1289,-3.14,-3.1403,-3.1373,-3.1456,-3.145,-3.1529,-3.1437,-3.1439,-3.144,0,-3.0348,-3.0433,-3.0566,-3.0672,-3.0708,-3.0774,-3.0872,-3.0945,-3.1036,-3.1072,-3.1141,-3.1179,-3.1272,-3.1254,-3.1385,-3.1342,-3.1392,-3.1431,-3.1436,-3.1446,-3.1423,-3.1468,-3.1556,-3.1568,-3.146,-3.1458,-3.1457,0,-3.0362,-3.051,-3.061,-3.0655,-3.0781,-3.0827,-3.0882,-3.0971,-3.1029,-3.1116,-3.1154,-3.1251,-3.1303,-3.1378,-3.1442,-3.1423,-3.1568,-3.1554,-3.16,-3.1599,-3.1626,-3.1623,-3.1723,-3.1661,-3.1661,-3.1661,-3.166,0,-3.0437,-3.0517,-3.0618,-3.0679,-3.0772,-3.0839,-3.0929,-3.0987,-3.1067,-3.1142,-3.1187,-3.1257,-3.1337,-3.1418,-3.1469,-3.157,-3.1594,-3.1626,-3.1638,-3.1621,-3.1617,-3.1653,-3.1648,-3.1664,-3.1663,-3.1662,-3.1662,0,-3.0467,-3.0538,-3.065,-3.0761,-3.0792,-3.0855,-3.0951,-3.1013,-3.1071,-3.1165,-3.1191,-3.1282,-3.1379,-3.1451,-3.1577,-3.1612,-3.172,-3.1733,-3.1689,-3.1695,-3.1737,-3.1731,-3.1861,-3.1882,-3.1807,-3.1808,-3.1808,0,-3.0508,-3.0571,-3.069,-3.0744,-3.0799,-3.0884,-3.0944,-3.1014,-3.1075,-3.1187,-3.1236,-3.1337,-3.1421,-3.1575,-3.1653,-3.1751,-3.1766,-3.1805,-3.1781,-3.1762,-3.1766,-3.1761,-3.1768,-3.1807,-3.1808,-3.1808,-3.1808,0,-3.0575,-3.0608,-3.0692,-3.079,-3.0861,-3.0941,-3.1023,-3.1064,-3.115,-3.1217,-3.1317,-3.1383,-3.1513,-3.1613,-3.1719,-3.1778,-3.1808,-3.1816,-3.1832,-3.1814,-3.1786,-3.1802,-3.1697,-3.1812,-3.1812,-3.1811,-3.1811,-3.1811,-3.0612,-3.0671,-3.0764,-3.0858,-3.0927,-3.1003,-3.1068,-3.1135,-3.122,-3.1331,-3.1369,-3.1473,-3.1567,-3.1713,-3.1773,-3.1857,-3.1856,-3.1879,-3.1885,-3.1889,-3.1888,-3.1774,-3.1877,-3.1877,-3.1877,-3.1877,-3.1877,0,-3.068,-3.0744,-3.0829,-3.0943,-3.1017,-3.1041,-3.1134,-3.1194,-3.1285,-3.1371,-3.1454,-3.1571,-3.167,-3.1757,-3.186,-3.1911,-3.1928,-3.1936,-3.1931,-3.1945,-3.1882,-3.1858,-3.192,-3.192,-3.192,-3.192,-3.192,-3.192,-3.0724,-3.0826,-3.0871,-3.1009,-3.1073,-3.1175,-3.1226,-3.1298,-3.1366,-3.1495,-3.1578,-3.1634,-3.1722,-3.1832,-3.1925,-3.1948,-3.1984,-3.1988,-3.2015,-3.1954,-3.1949,-3.1944,-3.1921,-3.1996,-3.1996,-3.207,-3.2071,-3.2071]},{"header":{"parameterUnit":"m.s-1","parameterCategory":1,"la1":30.2991,"la2":30.254,"lo1":-89.0895,"lo2":-89.0444,"dy":0.0017,"dx":0.0017,"nx":28,"ny":28,"refTime":"2025-04-24T03:00:00:Z","depth":0,"parameterNumber":3,"parameterNumberName":"V-component_of_WINDS"},"data":[0,0,0,0,0,0,0,0,0,0,0,0,0,0,0,0,0,0,0,0,0,0,0,0,0,0,0,0,0,0,0,0,0,0,0,0,0,0,0,0,0,0,0,0,0,0,0,0,0,0,0,0,0,0,0,0,0,0,1.8187,1.8189,0,1.8306,1.8307,1.8309,1.8409,1.841,1.8411,1.8412,1.8535,1.8537,1.8539,0,0,0,0,0,0,0,0,0,0,0,0,0,1.8054,1.8056,1.8187,1.8189,1.819,1.8306,1.8307,1.8309,1.8409,1.841,1.8412,1.8413,1.8534,1.8537,1.8539,0,0,0,0,0,0,0,0,0,0,0,0,0,1.8136,1.8056,1.8187,1.8254,1.8261,1.8305,1.8307,1.831,1.8409,1.841,1.8412,1.8413,1.8533,1.8536,1.854,1.8527,0,0,1.855,1.8551,0,0,0,0,0,0,0,0,1.8131,1.8141,1.8243,1.8249,1.8258,1.8344,1.8305,1.8383,1.8408,1.8353,1.8412,1.8414,1.847,1.8479,1.8497,1.8533,1.8538,1.855,1.8552,1.8554,1.8555,0,0,0,0,0,0,0,1.8125,1.8136,1.8234,1.8244,1.8253,1.828,1.8294,1.832,1.8401,1.8358,1.8365,1.8378,1.8475,1.8494,1.8501,1.854,1.855,1.8553,1.8555,1.8556,1.8581,1.858,0,0,0,0,0,0,1.8109,1.8131,1.8231,1.8238,1.8197,1.8281,1.8296,1.8315,1.8401,1.8415,1.8376,1.8382,1.8487,1.8497,1.8506,1.8502,1.8554,1.8557,1.8559,1.8583,1.8581,1.858,0,0,0,0,0,0,1.8105,1.8117,1.8226,1.8187,1.8203,1.8282,1.8302,1.8316,1.8336,1.8415,1.843,1.8381,1.8489,1.8501,1.8523,1.8508,1.8558,1.8561,1.8584,1.8582,1.858,1.8491,0,0,0,0,0,0,1.8101,1.8115,1.8109,1.8186,1.8204,1.8238,1.8301,1.8317,1.8341,1.835,1.8423,1.8437,1.8491,1.8518,1.8527,1.8513,1.8564,1.8586,1.8583,1.8581,1.8496,1.8487,1.8478,0,0,0,0,0,1.8096,1.8077,1.8108,1.8119,1.8198,1.8237,1.8248,1.8311,1.8339,1.8336,1.8388,1.8435,1.8508,1.8519,1.853,1.8517,1.8587,1.8584,1.8581,1.85,1.8488,1.8479,0,0,0,0,0,0,1.7995,1.8088,1.8123,1.8128,1.8174,1.8254,1.825,1.8295,1.8334,1.834,1.8417,1.8433,1.8448,1.8485,1.8496,1.8515,1.8555,1.8553,1.8489,1.8479,1.847,1.8461,1.8567,0,0,0,0,0,1.7973,1.7996,1.8077,1.8074,1.8096,1.8169,1.8189,1.8234,1.8285,1.8304,1.8358,1.8406,1.8442,1.8462,1.8498,1.8503,1.8524,1.8501,1.8492,1.8484,1.8482,1.8494,1.8487,1.857,1.857,1.857,0,0,1.7928,1.7983,1.7992,1.8056,1.8096,1.8121,1.8185,1.8206,1.8226,1.8308,1.8333,1.8375,1.8435,1.845,1.8459,1.8481,1.8465,1.848,1.8474,1.8476,1.849,1.8483,1.8475,1.8568,1.8568,1.8568,0,0,1.786,1.7901,1.7906,1.7948,1.801,1.806,1.8062,1.8137,1.8168,1.8195,1.8259,1.8285,1.8342,1.8384,1.8413,1.837,1.8416,1.838,1.8333,1.8344,1.8338,1.8332,1.8321,1.8315,1.8378,1.8377,1.8377,0,1.7796,1.7834,1.7903,1.7923,1.7952,1.8029,1.8038,1.8074,1.8145,1.8164,1.8188,1.8267,1.8312,1.8341,1.8332,1.8351,1.8359,1.837,1.8333,1.8328,1.8324,1.8314,1.831,1.8373,1.8373,1.8374,1.8374,0,1.7755,1.7781,1.7778,1.7847,1.7875,1.7889,1.7964,1.7985,1.803,1.8079,1.811,1.8168,1.8221,1.8231,1.8273,1.8269,1.8282,1.8318,1.836,1.8311,1.8303,1.8299,1.8366,1.8368,1.8369,1.837,0,0,1.762,1.7733,1.773,1.7765,1.7844,1.7866,1.7887,1.7939,1.7958,1.8007,1.8028,1.8079,1.8116,1.8149,1.8198,1.8208,1.8177,1.8245,1.8248,1.8232,1.8181,1.8154,1.8147,1.8209,1.8208,1.8208,1.8177,0,1.7566,1.7605,1.7672,1.769,1.7718,1.7797,1.7816,1.7868,1.7916,1.795,1.8005,1.8041,1.8085,1.8106,1.8119,1.8177,1.8167,1.818,1.8233,1.8234,1.8215,1.8143,1.8112,1.808,1.8174,1.8174,1.8173,0,1.7505,1.7552,1.7573,1.7657,1.7671,1.7686,1.7744,1.7773,1.7837,1.7873,1.7913,1.7969,1.8,1.8039,1.8085,1.8092,1.8119,1.8152,1.8152,1.8159,1.82,1.815,1.807,1.8066,1.8169,1.8169,1.8169,0,1.7409,1.7477,1.75,1.7528,1.7624,1.7634,1.7675,1.774,1.777,1.7821,1.7843,1.7897,1.7926,1.7969,1.804,1.8061,1.8081,1.8124,1.8114,1.8112,1.8113,1.8112,1.8038,1.8128,1.8128,1.8128,1.8128,0,1.7341,1.7351,1.7459,1.7473,1.749,1.757,1.7586,1.7634,1.7693,1.7722,1.7794,1.7819,1.7911,1.7949,1.8006,1.8038,1.8051,1.8083,1.8098,1.8077,1.8073,1.8094,1.8099,1.8127,1.8127,1.8128,1.8128,0,1.7234,1.7306,1.7337,1.7428,1.7452,1.7461,1.754,1.756,1.7616,1.7651,1.7665,1.7752,1.7802,1.7878,1.7949,1.7988,1.8012,1.8036,1.799,1.7999,1.7986,1.7987,1.7924,1.7922,1.8011,1.801,1.8009,0,1.7185,1.7196,1.729,1.7314,1.7353,1.7391,1.7423,1.7505,1.7536,1.7614,1.7626,1.7681,1.7729,1.7806,1.7878,1.7935,1.7962,1.7936,1.797,1.7951,1.7965,1.7964,1.7968,1.7927,1.7926,1.7925,1.7924,0,1.7093,1.713,1.7173,1.723,1.7267,1.7316,1.7369,1.7386,1.748,1.7512,1.7564,1.7602,1.7679,1.7734,1.7803,1.7849,1.7904,1.7913,1.7915,1.7893,1.7867,1.7884,1.7969,1.7914,1.7915,1.7915,1.7916,1.7916,1.7016,1.7032,1.7102,1.7149,1.7199,1.7248,1.7273,1.7334,1.7378,1.7446,1.7493,1.7544,1.7616,1.7714,1.7759,1.7803,1.7825,1.7826,1.7826,1.7826,1.782,1.7861,1.7815,1.7816,1.7816,1.7816,1.7817,0,1.693,1.698,1.7023,1.7097,1.7136,1.7185,1.7249,1.7279,1.7322,1.7384,1.7432,1.7496,1.7553,1.7632,1.7697,1.7717,1.7744,1.7731,1.7731,1.7742,1.7794,1.7787,1.7709,1.7709,1.7709,1.7709,1.7709,1.7709,1.6889,1.692,1.6967,1.7026,1.7078,1.7127,1.716,1.7209,1.7259,1.7327,1.7375,1.7427,1.7499,1.757,1.7627,1.7649,1.767,1.765,1.768,1.7727,1.7737,1.7746,1.7741,1.7654,1.7653,1.7625,1.7625,1.7625]}]]